TimeMDT,TemperatureF,Dew PointF,Humidity,Sea Level PressureIn,VisibilityMPH,Wind Direction,Wind SpeedMPH,Gust SpeedMPH,PrecipitationIn,Events,Conditions,WindDirDegrees,DateUTC
12:53 AM,30.0,23.0,75,29.99,10.0,SE,4.6,-,N/A,,Clear,130,2012-10-12 06:53:00
1:53 AM,28.9,23.0,78,29.96,10.0,SSE,3.5,-,N/A,,Clear,160,2012-10-12 07:53:00
2:53 AM,27.0,21.9,81,29.95,10.0,SE,3.5,-,N/A,,Clear,140,2012-10-12 08:53:00
3:53 AM,26.1,21.9,84,29.94,10.0,Calm,Calm,-,N/A,,Clear,0,2012-10-12 09:53:00
4:53 AM,26.1,21.0,81,29.94,10.0,Calm,Calm,-,N/A,,Clear,0,2012-10-12 10:53:00
5:53 AM,24.1,19.9,84,29.95,10.0,SE,3.5,-,N/A,,Clear,130,2012-10-12 11:53:00
6:53 AM,25.0,19.9,81,29.96,10.0,Calm,Calm,-,N/A,,Clear,0,2012-10-12 12:53:00
7:53 AM,24.1,19.0,81,29.98,10.0,Calm,Calm,-,N/A,,Clear,0,2012-10-12 13:53:00
8:53 AM,27.0,21.9,81,30.00,8.0,Calm,Calm,-,N/A,,Clear,0,2012-10-12 14:53:00
9:53 AM,37.0,27.0,67,29.96,10.0,Calm,Calm,-,N/A,,Clear,0,2012-10-12 15:53:00
10:53 AM,48.2,28.4,46,29.93,10.0,NNE,3.5,-,N/A,,Clear,30,2012-10-12 16:53:00
11:53 AM,60.1,27.0,28,29.86,10.0,NNE,3.5,-,N/A,,Clear,20,2012-10-12 17:53:00
12:53 PM,64.9,21.0,19,29.82,10.0,Variable,5.8,-,N/A,,Clear,0,2012-10-12 18:53:00
1:53 PM,66.9,15.1,14,29.80,10.0,SW,11.5,24.2,N/A,,Clear,230,2012-10-12 19:53:00
2:53 PM,69.1,14.0,12,29.78,10.0,West,8.1,23.0,N/A,,Clear,260,2012-10-12 20:53:00
3:53 PM,69.1,14.0,12,29.77,10.0,West,9.2,-,N/A,,Clear,260,2012-10-12 21:53:00
4:53 PM,69.1,12.0,11,29.76,10.0,West,15.0,23.0,N/A,,Clear,280,2012-10-12 22:53:00
5:53 PM,66.0,15.1,14,29.80,8.0,WNW,9.2,-,N/A,,Clear,290,2012-10-12 23:53:00
6:53 PM,60.1,14.0,16,29.83,7.0,WNW,5.8,-,N/A,,Clear,290,2012-10-13 00:53:00
7:53 PM,57.2,15.8,20,29.88,8.0,WNW,5.8,-,N/A,,Partly Cloudy,300,2012-10-13 01:53:00
8:53 PM,60.1,16.0,18,29.86,7.0,NW,10.4,-,N/A,,Scattered Clouds,310,2012-10-13 02:53:00
9:53 PM,57.9,19.0,22,29.85,6.0,WNW,5.8,-,N/A,,Haze,290,2012-10-13 03:53:00
10:53 PM,55.9,19.0,24,29.84,6.0,WNW,6.9,-,N/A,,Haze,300,2012-10-13 04:53:00
11:53 PM,52.0,19.0,27,29.82,8.0,WNW,6.9,-,N/A,,Clear,300,2012-10-13 05:53:00